Other Public Products
Issued by NWS Grand Forks, ND

Home | Current Version | Previous Version | Text Only | Print | Product List | Glossary Off
Versions: 1 2 3 4 5 6 7 8 9 10 11 12 13 14 15 16 17 18 19 20 21 22 23 24 25 26 27 28 29 30 31 32 33 34 35 36 37 38 39 40 41 42 43 44 45 46 47 48 49 50

000
FPUS83 KFGF 211310
OPUFGF
PRAIRIE TO PINES WEATHER ROUNDUP
NATIONAL WEATHER SERVICE EASTERN NORTH DAKOTA/GRAND FORKS ND
800 AM CDT THU SEP 21 2017

 **SATELLITE DATA USED TO AUGMENT SKY COVER AT AUTOMATED STATIONS**
 *****  WEATHER ACROSS EASTERN NORTH DAKOTA  *****

CITY           SKY/WX    TMP DP  RH WIND       PRES   REMARKS
GRAND FORKS    MOCLDY    58  49  72 S17G25    29.80F
GRAND FORKS AF MOCLDY    57  46  67 S15G22    29.79F
GRAND CITY NWS NOT AVBL
BUXTON         NOT AVBL
DEVILS LAKE    CLOUDY    56  47  71 SE10      29.76R
FARGO          FAIR      56  48  74 S16G25    29.85F
WAHPETON ARPT  FAIR      52  45  76 SE13G18   29.88S
$$

 *****  WEATHER ACROSS CENTRAL AND WESTERN NORTH DAKOTA  *****

CITY           SKY/WX    TMP DP  RH WIND       PRES   REMARKS
JAMESTOWN      FAIR      54  47  77 S10       29.78R
BISMARCK       FAIR      59  46  62 SE17      29.68F
MINOT          CLOUDY    54  43  66 N5        29.66R
MINOT AFB      FAIR      52  44  75 NE3       29.65R
GARRISON         N/A     55  44  66 VRB5      29.65F
WILLISTON      MOCLDY    48  41  76 CALM      29.67S
DICKINSON      FAIR      53  42  66 CALM      29.64R
HETTINGER      MOCLDY    56  38  50 SE9       29.66S
$$

 *****  OTHER OBSERVATIONS NORTHEAST NORTH DAKOTA  *****

CITY           SKY/WX    TMP DP  RH WIND       PRES   REMARKS
WALHALLA       FAIR     N/A N/A N/A S15       29.75S
LANGDON        NOT AVBL
CAVALIER       FAIR      52  46  82 S9G16     29.77S
GRAFTON        NOT AVBL
CANDO          NOT AVBL
FORT TOTTEN      N/A     53  46  76 S13       29.95S
ROLLA          CLOUDY    52  41  66 SW6G17    29.72R
RUGBY          NOT AVBL
 ***** THE ABOVE OBSERVATIONS ARE NON NWS ARE NOT QUALITY
        CONTROLLED AND MAY MIS-REPORT RAIN FOR SNOW...
$$

 *****  OTHER OBSERVATIONS SOUTHEAST NORTH DAKOTA *****

CITY           SKY/WX    TMP DP  RH WIND       PRES   REMARKS
COOPERSTOWN    FAIR      55  48  76 SE13      29.79S
VALLEY CITY    NOT AVBL
OAKES          NOT AVBL
GWINNER        SUNNY     54  46  76 SE9       29.82F
BUFFALO        NOT AVBL
WYNDMERE       NOT AVBL
 ***** THE ABOVE OBSERVATIONS ARE NON NWS ARE NOT QUALITY
       CONTROLLED AND MAY MIS-REPORT RAIN FOR SNOW...
$$

  *****  WEATHER ACROSS NORTHERN MINNESOTA  *****

CITY           SKY/WX    TMP DP  RH WIND       PRES   REMARKS
FLAG ISLAND    FAIR      59  50  72 S18       29.85F
WARROAD        FAIR      57  46  67 S12       29.87F
ROSEAU         FAIR      57  46  67 S14       29.85F
HALLOCK        CLOUDY    55  46  71 S13       29.81R
THF RVR FALLS  FAIR      58  45  62 S13       29.87R
HALSTAD        NOT AVBL
FOSSTON        FAIR      54  45  71 SE9       29.89S
BAUDETTE       FAIR      47  44  90 SE7       29.91F
WASKISH        FAIR      52  46  82 SE3       29.94R
CROOKSTON      FAIR      57  48  72 S15       29.86R
$$
  *****  WEATHER ACROSS CENTRAL AND WEST MINNESOTA  *****

CITY           SKY/WX    TMP DP  RH WIND       PRES   REMARKS
BEMIDJI        FAIR      50  45  82 SE8       29.93F
PARK RAPIDS    FAIR      52  45  77 SE7       29.94S
WADENA         FAIR      50  45  81 SE7       29.92S
DETROIT LAKES  FAIR      54  46  76 SE10      29.91R
MOORHEAD       FAIR      54  48  82 S12       29.88S
FERGUS FALLS   FAIR      54  46  76 S10       29.91R
ELBOW LAKE     FAIR      53  47  82 E9        29.91S
MORRIS MN      FAIR      52  48  87 SE13      29.91S
STAPLES        NOT AVBL
WHEATON        FAIR      52  46  82 SE9       29.90F
$$
  *****  WEATHER ELSEWHERE ACROSS MINNESOTA  *****

CITY           SKY/WX    TMP DP  RH WIND       PRES   REMARKS
DULUTH         FAIR      49  49 100 SE8       30.02S
INTRNTL FALLS  FAIR      48  43  82 SE6       29.98R
ELY            FAIR      37  37 100 CALM      30.04R
CLOQUET        FAIR      48  45  87 CALM      30.02S
BRAINERD       FAIR      50  45  83 SE7       29.97F
HIBBING        FAIR      38  38 100 CALM      30.02R
ALEXANDRIA     FAIR      53  46  77 SE12      29.95R
SAINT CLOUD    FAIR      50  47  89 E7        29.98S
MINNEAPOLIS    FAIR      57  50  77 E6        29.99F
$$

  *****  WEATHER ACROSS SOUTH DAKOTA  *****

CITY           SKY/WX    TMP DP  RH WIND       PRES   REMARKS
SIOUX FALLS    FAIR      58  52  80 SE13G21   29.88F
BROOKINGS      FAIR      54  48  80 SE13      29.89F
WATERTOWN      FAIR      53  47  79 SE10      29.87R
HURON          FAIR      51  46  83 SE12      29.83F
SISSETON         N/A     48  46  93 S8        29.86F
ABERDEEN       FAIR      51  48  89 S8        29.81F
MITCHELL       FAIR      53  48  83 SE7       29.85F
PIERRE         FAIR      56  46  69 SE12      29.74S
MOBRIDGE       FAIR      61  48  62 S20       29.69S
RAPID CITY     CLEAR     54  37  54 S12       29.66S
$$

  *****  SOME WEATHER IN NEARBY STATES *****

CITY           SKY/WX    TMP DP  RH WIND       PRES   REMARKS
GLASGOW MT     FAIR      44  37  76 W5        29.70R
GREAT FALLS MT FAIR      37  29  72 SW9       29.76R
CHEYENNE WY    FAIR      44  31  60 CALM      29.82R
SCOTTSBLUFF NE FAIR      46  39  76 E7        29.75R
OMAHA NE       FAIR      69  61  75 SE9       29.86R
DES MOINES IA  PTSUNNY   70  68  93 CALM      29.89F
DAVENPORT IA   FAIR      76  57  51 S14G25    29.97R
CHICAGO IL     CLOUDY    76  68  76 S6        29.99R
EAU CLAIRE WI  FAIR      52  51  97 N3        30.02R
LA CROSSE WI   NOT AVBL
$$

  *****  SOME NATIONAL WEATHER *****

CITY           SKY/WX    TMP DP  RH WIND       PRES   REMARKS
LA GUARDIA NY  PTSUNNY   74  65  73 N13       29.99R
RALEIGH NC     FAIR      74  66  76 CALM      30.06S
ATLANTA GA     FAIR      76  67  73 N6        30.09S
NEW ORLEANS LA FAIR      77  76  96 CALM      30.03R
OKLAHOMA CITY  MOCLDY    76  70  82 S12G22    29.89R
ALBUQUERQUE NM FAIR      60  36  40 CALM      30.05R
SALT LAKE CITY MOCLDY    52  44  74 NE8       29.74S
LOS ANGELES CA CLOUDY    67  62  84 S7        29.84R
BOISE ID       CLOUDY    47  45  93 W5        29.80R
SEATTLE WA     LGT RAIN  51  49  92 S5        29.89R
$$

*** WEATHER ACROSS MANITOBA...SASKATCHEWAN AND ONTARIO ***
                ***ONTARIO***

CITY           SKY/WX    TMP DP  RH WIND       PRES   REMARKS
GERALDTON      SUNNY     48  48 100 CALM      30.06R
THUNDER BAY    MOSUNNY   45  45 100 W5        30.07R
SIOUX LOOKOUT  PTCLDY    50  45  81 CALM      29.94F
TORONTO        MOSUNNY   70  63  78 W3        30.12R
BIG TROUT LK   MOSUNNY   52  46  82 SW14G22   29.80R
PICKLE LAKE    MOSUNNY   50  45  81 S12G17    29.94R
DRYDEN         CLEAR     52  45  76 S8        29.96R
KENORA         PTCLDY    52  45  76 S9        29.90S
$$
                *** MANITOBA***

CITY           SKY/WX    TMP DP  RH WIND       PRES   REMARKS
BRANDON        CLOUDY    43  41  93 NE5       29.66S
DAUPHIN        PTCLDY    52  41  66 W5        29.62R
ISLAND LAKE    PTCLDY    52  43  71 S9        29.68R
PILOT MOUND      N/A     54  43  66 S15         N/A
THE PAS        PTCLDY    39  36  87 S2        29.54R
THOMPSON       MOCLDY    43  41  93 S3        29.52R
WINNIPEG       MOCLDY    55  45  67 S21       29.73F
LYNN LAKE      LGT RAIN  41  41 100 NW3       29.48R FOG
CHURCHILL      FOG       43  43 100 E9        29.54R VSB 1/4
GILLAM         PTCLDY    46  45  93 S10       29.57R
$$
                ***SASKATCHEWAN***

CITY           SKY/WX    TMP DP  RH WIND       PRES   REMARKS
ESTEVAN        MOCLDY    45  39  81 W7        29.65S
KINDERSLEY     CLOUDY    41  37  87 W17       29.65R
LLOYDMINSTER   LGT RAIN  37  37 100 NW8       29.60R FOG
PRINCE ALBERT  PTCLDY    36  34  93 SW7       29.58R
REGINA         MOCLDY    34  30  86 SW5       29.67R
YORKTON        CLEAR     41  34  75 S7        29.61R
N. BATTLEFORD  CLOUDY    41  39  93 SW6       29.60R


USA.gov is the U.S. government's official web portal to all federal, state and local government web resources and services.